IA5KRO-13 Weather Reports


time (UTC)temp
C
wind
direction
speed
KPH
gust
KPH
rain 1hr
cm
rain 24hr
cm
rain mn
cm
humidity
%
barometer
mb
20260503212508 15 179 1.6 1.6 0.00 0.00 0.00 58 1025.7
20260503212012 15 263 3.2 3.2 0.00 0.00 0.00 58 1025.7
20260503211512 15 188 1.6 1.6 0.00 0.00 0.00 61 1025.7
20260503211012 15 189 3.2 3.2 0.00 0.00 0.00 60 1025.7
20260503210510 15 164 0.0 0.0 0.00 0.00 0.00 64 1025.7
20260503210030 15 168 0.0 0.0 0.00 0.00 0.00 65 1025.7
20260503205508 15 181 1.6 1.6 0.00 0.00 0.00 66 1025.7
20260503205013 15 169 1.6 1.6 0.00 0.00 0.00 65 1025.7
20260503204512 15 176 1.6 1.6 0.00 0.00 0.00 66 1025.7
20260503204012 15 184 3.2 3.2 0.00 0.00 0.00 67 1025.7
20260503203509 15 171 0.0 0.0 0.00 0.00 0.00 65 1026.1
20260503203021 15 172 0.0 1.6 0.00 0.00 0.00 63 1026.1
20260503202509 15 179 1.6 3.2 0.00 0.00 0.00 65 1026.1
20260503202012 15 205 1.6 1.6 0.00 0.00 0.00 66 1026.1
20260503201512 15 203 1.6 1.6 0.00 0.00 0.00 64 1026.1
20260503201011 15 176 1.6 1.6 0.00 0.00 0.00 65 1026.1
20260503200509 15 268 3.2 4.8 0.00 0.00 0.00 65 1026.1
20260503200029 15 169 0.0 1.6 0.00 0.00 0.00 69 1026.1
20260503195509 15 191 1.6 3.2 0.00 0.00 0.00 66 1026.1
20260503195012 15 194 3.2 3.2 0.00 0.00 0.00 65 1026.1
20260503194511 15 220 1.6 1.6 0.00 0.00 0.00 68 1026.1
20260503194012 15 213 1.6 1.6 0.00 0.00 0.00 66 1026.1
20260503193508 15 186 1.6 3.2 0.00 0.00 0.00 66 1025.7
20260503193022 15 180 1.6 1.6 0.00 0.00 0.00 66 1025.7
20260503192509 15 235 3.2 4.8 0.00 0.00 0.00 62 1025.7
20260503192013 15 199 1.6 1.6 0.00 0.00 0.00 64 1025.7
20260503191512 15 171 0.0 1.6 0.00 0.00 0.00 65 1025.7
20260503191012 15 218 1.6 3.2 0.00 0.00 0.00 61 1025.7
20260503190508 15 266 4.8 6.4 0.00 0.00 0.00 62 1025.7
20260503190029 16 219 3.2 4.8 0.00 0.00 0.00 69 1025.7
20260503185509 16 172 0.0 1.6 0.00 0.00 0.00 67 1025.7
20260503185013 16 183 3.2 3.2 0.00 0.00 0.00 70 1025.7
20260503184012 16 215 3.2 3.2 0.00 0.00 0.00 69 1025.7
20260503183509 16 189 1.6 1.6 0.00 0.00 0.00 76 1025.7
20260503183022 16 273 6.4 6.4 0.00 0.00 0.00 76 1025.7
20260503182508 16 200 3.2 4.8 0.00 0.00 0.00 76 1025.7
20260503182012 17 197 3.2 3.2 0.00 0.00 0.00 75 1025.7
20260503181512 17 192 1.6 1.6 0.00 0.00 0.00 76 1025.7
20260503181011 17 232 1.6 1.6 0.00 0.00 0.00 75 1025.7
20260503180508 17 254 1.6 3.2 0.00 0.00 0.00 74 1025.7
20260503180028 17 178 1.6 1.6 0.00 0.00 0.00 70 1025.7
20260503175509 17 181 1.6 1.6 0.00 0.00 0.00 70 1025.7
20260503175013 17 168 0.0 0.0 0.00 0.00 0.00 71 1025.7
20260503174512 17 163 0.0 0.0 0.00 0.00 0.00 71 1025.7
20260503173509 18 159 0.0 0.0 0.00 0.00 0.00 69 1025.4
20260503173022 18 170 1.6 1.6 0.00 0.00 0.00 68 1025.4
20260503172509 18 167 0.0 1.6 0.00 0.00 0.00 67 1025.4
20260503172012 18 169 0.0 0.0 0.00 0.00 0.00 66 1025.7
20260503171512 18 191 3.2 3.2 0.00 0.00 0.00 66 1025.7
20260503171014 18 192 1.6 3.2 0.00 0.00 0.00 66 1025.7
20260503170509 20 175 0.0 1.6 0.00 0.00 0.00 64 1025.7
20260503151012 23 147 0.0 1.6 0.00 0.00 0.00 55 1026.1
20260503150509 23 161 1.6 1.6 0.00 0.00 0.00 56 1026.1
20260503131012 25 181 3.2 3.2 0.00 0.00 0.00 40 1026.8
20260503130510 26 146 0.0 1.6 0.00 0.00 0.00 41 1026.8
20260503110509 23 168 0.0 1.6 0.00 0.00 0.00 48 1028.1
20260503081512 20 290 6.4 9.7 0.00 0.00 0.00 48 1027.8
20260503081012 20 266 4.8 6.4 0.00 0.00 0.00 53 1027.8
20260503080508 21 219 0.0 1.6 0.00 0.00 0.00 51 1027.8
20260503072508 20 152 1.6 1.6 0.00 0.00 0.00 56 1028.1
20260503072012 21 173 0.0 1.6 0.00 0.00 0.00 55 1028.1
20260503071512 21 163 0.0 1.6 0.00 0.00 0.00 57 1028.1
20260503071012 21 170 0.0 1.6 0.00 0.00 0.00 56 1028.1
20260503070509 21 141 1.6 1.6 0.00 0.00 0.00 56 1028.1
20260503055012 16 174 0.0 0.0 0.00 0.00 0.00 65 1028.1
20260503054511 16 179 0.0 0.0 0.00 0.00 0.00 63 1028.1
20260503054012 16 183 0.0 1.6 0.00 0.00 0.00 63 1028.1
20260503053509 16 185 0.0 1.6 0.00 0.00 0.00 62 1028.1
20260503053021 16 165 1.6 1.6 0.00 0.00 0.00 62 1028.1
20260503052508 13 209 1.6 1.6 0.00 0.00 0.00 63 1028.1
20260503052012 13 168 0.0 0.0 0.00 0.00 0.00 64 1028.1
20260503051512 13 167 0.0 0.0 0.00 0.00 0.00 66 1028.1
20260503051012 12 169 0.0 0.0 0.00 0.00 0.00 69 1028.1
20260503050509 12 174 0.0 0.0 0.00 0.00 0.00 66 1028.1
20260503050029 12 177 0.0 1.6 0.00 0.00 0.00 67 1028.1
20260503045511 12 170 0.0 1.6 0.00 0.00 0.00 65 1028.1
20260503045012 12 173 1.6 1.6 0.00 0.00 0.00 63 1028.1
20260503044511 12 258 4.8 6.4 0.00 0.00 0.00 60 1028.1
20260503044012 12 241 4.8 6.4 0.00 0.00 0.00 60 1028.1
20260503043508 12 250 3.2 9.7 0.00 0.00 0.00 60 1028.1
20260503043021 12 276 3.2 6.4 0.00 0.00 0.00 60 1028.1
20260503042509 12 187 3.2 4.8 0.00 0.00 0.00 60 1028.1
20260503042012 12 270 6.4 9.7 0.00 0.00 0.00 60 1028.1
20260503041511 12 213 3.2 6.4 0.00 0.00 0.00 59 1028.1
20260503041012 12 180 1.6 1.6 0.00 0.00 0.00 60 1028.1
20260503040508 12 295 4.8 4.8 0.00 0.00 0.00 59 1028.1
20260503040030 12 257 6.4 9.7 0.00 0.00 0.00 59 1028.1
20260503035508 12 268 3.2 3.2 0.00 0.00 0.00 60 1028.1
20260503035012 12 177 1.6 1.6 0.00 0.00 0.00 61 1028.1
20260503034512 12 171 0.0 1.6 0.00 0.00 0.00 60 1028.1
20260503034012 12 264 4.8 4.8 0.00 0.00 0.00 60 1028.1
20260503033508 12 271 3.2 3.2 0.00 0.00 0.00 59 1028.1
20260503033021 12 298 6.4 6.4 0.00 0.00 0.00 59 1028.1
20260503032509 12 202 1.6 3.2 0.00 0.00 0.00 60 1028.1
20260503032012 12 180 1.6 4.8 0.00 0.00 0.00 58 1028.1
20260503031512 12 264 3.2 9.7 0.00 0.00 0.00 59 1028.1
20260503031012 12 188 0.0 1.6 0.00 0.00 0.00 61 1028.1
20260503030508 11 188 1.6 3.2 0.00 0.00 0.00 62 1028.1
20260503030032 11 195 1.6 1.6 0.00 0.00 0.00 63 1028.1
20260503025509 11 176 0.0 0.0 0.00 0.00 0.00 65 1028.1
20260503025012 11 179 0.0 0.0 0.00 0.00 0.00 63 1028.1
20260503024511 11 201 1.6 1.6 0.00 0.00 0.00 62 1028.1
20260503024012 11 174 0.0 0.0 0.00 0.00 0.00 63 1028.1
20260503023508 11 173 0.0 1.6 0.00 0.00 0.00 65 1028.1
20260503023021 11 169 0.0 0.0 0.00 0.00 0.00 65 1028.1
20260503022509 11 165 1.6 1.6 0.00 0.00 0.00 63 1028.1
20260503022012 11 174 0.0 0.0 0.00 0.00 0.00 64 1028.1
20260503021512 11 179 0.0 0.0 0.00 0.00 0.00 64 1028.1
20260503021012 11 171 0.0 0.0 0.00 0.00 0.00 63 1028.1
20260503020509 11 175 0.0 0.0 0.00 0.00 0.00 63 1028.1
20260503020031 12 170 0.0 0.0 0.00 0.00 0.00 61 1028.1
20260503015508 12 190 1.6 1.6 0.00 0.00 0.00 60 1028.1
20260503015012 12 171 1.6 1.6 0.00 0.00 0.00 59 1028.1
20260503014512 12 175 1.6 1.6 0.00 0.00 0.00 59 1028.1
20260503014012 12 218 1.6 1.6 0.00 0.00 0.00 60 1028.1
20260503013508 12 175 0.0 0.0 0.00 0.00 0.00 60 1028.1
20260503013021 12 175 0.0 0.0 0.00 0.00 0.00 59 1028.1
20260503012509 12 170 0.0 0.0 0.00 0.00 0.00 61 1028.1
20260503012013 12 169 0.0 0.0 0.00 0.00 0.00 59 1028.1
20260503011512 12 171 1.6 1.6 0.00 0.00 0.00 57 1028.1
20260503011013 12 223 3.2 3.2 0.00 0.00 0.00 55 1028.1
20260503010508 12 254 3.2 4.8 0.00 0.00 0.00 56 1028.1
20260503010032 12 238 1.6 1.6 0.00 0.00 0.00 55 1028.5
20260503005509 12 259 3.2 3.2 0.00 0.00 0.00 57 1028.5
20260503005012 12 200 1.6 4.8 0.00 0.00 0.00 57 1028.5
20260503004512 12 175 0.0 1.6 0.00 0.00 0.00 59 1028.5
20260503004012 12 223 1.6 1.6 0.00 0.00 0.00 57 1028.5
20260503003508 12 173 0.0 0.0 0.00 0.00 0.00 60 1028.5
20260503003021 12 174 0.0 0.0 0.00 0.00 0.00 59 1028.5
20260503002508 12 180 1.6 3.2 0.00 0.00 0.00 57 1028.5
20260503002012 12 178 0.0 0.0 0.00 0.00 0.00 57 1028.5
20260503001511 12 220 1.6 1.6 0.00 0.00 0.00 55 1028.5
20260503001012 12 214 3.2 4.8 0.00 0.00 0.00 55 1028.5
20260503000509 12 235 3.2 3.2 0.00 0.00 0.00 55 1028.5
20260503000034 12 226 3.2 3.2 0.00 0.00 0.00 55 1028.5
20260502235508 12 208 3.2 4.8 0.00 0.00 0.00 54 1028.5
20260502235012 12 267 3.2 3.2 0.00 0.00 0.00 54 1028.5
20260502234511 12 297 6.4 6.4 0.00 0.00 0.00 55 1028.8
20260502234012 12 175 0.0 1.6 0.00 0.00 0.00 55 1028.8
20260502233509 12 169 0.0 1.6 0.00 0.00 0.00 55 1028.8
20260502233021 12 182 1.6 3.2 0.00 0.00 0.00 55 1028.8
20260502232509 12 188 1.6 1.6 0.00 0.00 0.00 54 1028.8
20260502232013 12 193 1.6 1.6 0.00 0.00 0.00 55 1028.8
20260502231511 12 173 3.2 3.2 0.00 0.00 0.00 54 1028.8
20260502231013 12 199 1.6 3.2 0.00 0.00 0.00 54 1028.8
20260502230509 12 218 3.2 3.2 0.00 0.00 0.00 53 1028.8
20260502230030 12 277 3.2 4.8 0.00 0.00 0.00 55 1028.8
20260502225509 12 194 1.6 1.6 0.00 0.00 0.00 55 1028.8
20260502225012 12 247 3.2 3.2 0.00 0.00 0.00 56 1028.8
20260502224511 12 174 3.2 3.2 0.00 0.00 0.00 57 1029.1
20260502224012 12 221 0.0 1.6 0.00 0.00 0.00 58 1029.1
20260502223509 12 170 0.0 0.0 0.00 0.00 0.00 58 1029.1
20260502223022 12 170 0.0 0.0 0.00 0.00 0.00 58 1029.1
20260502222508 12 185 0.0 1.6 0.00 0.00 0.00 57 1029.1
20260502222012 13 195 1.6 1.6 0.00 0.00 0.00 54 1029.1
20260502221512 13 233 1.6 1.6 0.00 0.00 0.00 54 1029.1
20260502221012 13 217 3.2 3.2 0.00 0.00 0.00 53 1029.1
20260502220508 13 247 3.2 3.2 0.00 0.00 0.00 52 1029.1
20260502220032 13 280 4.8 8.0 0.00 0.00 0.00 51 1029.1
20260502215509 13 182 3.2 3.2 0.00 0.00 0.00 52 1029.1
20260502215011 13 199 3.2 4.8 0.00 0.00 0.00 52 1029.1
20260502214511 13 266 3.2 4.8 0.00 0.00 0.00 52 1028.8
20260502214012 13 285 6.4 6.4 0.00 0.00 0.00 52 1028.8
20260502213508 13 278 4.8 9.7 0.00 0.00 0.00 52 1028.8
20260502213021 13 250 3.2 4.8 0.00 0.00 0.00 51 1028.8